This is the latest recevied weather packets stored in our database for station/object F1AGU-13. If no packets are shown the sender has not sent any weather packets the latest 1 day(s).
| Time | Temp. | Humidity | Pressure | Rain* | Wind** | Luminosity | Snow |
|---|---|---|---|---|---|---|---|
| 1777981516 | 8.89° C | 93% | 1011.7 hPa | 6.1 mm | 0.45 m/s, 203° | - | - |
| 1777980916 | 8.89° C | 92% | 1011.5 hPa | 4.83 mm | 1.79 m/s, 180° | - | - |
| 1777980316 | 8.89° C | 92% | 1011.4 hPa | 4.06 mm | 2.24 m/s, 180° | - | - |
| 1777979716 | 9.44° C | 93% | 1011.5 hPa | 2.79 mm | 0.45 m/s, 203° | - | - |
| 1777979116 | 9.44° C | 92% | 1011.6 hPa | 1.78 mm | 0.89 m/s, 180° | - | - |
| 1777978516 | 9.44° C | 90% | 1011.7 hPa | 1.27 mm | 1.79 m/s, 180° | - | - |
| 1777977919 | 10° C | 89% | 1011.6 hPa | 0.76 mm | 1.79 m/s, 158° | - | - |
| 1777977316 | 10° C | 88% | 1011.7 hPa | 0.51 mm | 2.68 m/s, 180° | - | - |
| 1777976716 | 10° C | 89% | 1011.6 hPa | 0.51 mm | 2.24 m/s, 180° | - | - |
| 1777976116 | 10° C | 90% | 1011.5 hPa | 0.76 mm | 2.24 m/s, 180° | - | - |
| 1777975516 | 10° C | 88% | 1011.4 hPa | 0.51 mm | 2.24 m/s, 180° | - | - |
| 1777974916 | 10.56° C | 90% | 1011.6 hPa | 0.51 mm | 1.79 m/s, 180° | - | - |
| 1777974316 | 10.56° C | 90% | 1011.5 hPa | 0.51 mm | 1.34 m/s, 203° | - | - |
| 1777973716 | 10.56° C | 90% | 1011.2 hPa | 0.51 mm | 0.89 m/s, 203° | - | - |
| 1777973116 | 10.56° C | - | 1011.1 hPa | 0.51 mm | 0.45 m/s, 180° | - | - |
| 1777973116 | 10.56° C | 89% | 1011.1 hPa | 0.51 mm | 0.45 m/s, 180° | - | - |
| 1777972516 | 10.56° C | 88% | 1011.1 hPa | 0.25 mm | 1.34 m/s, 203° | - | - |
| 1777971916 | 10.56° C | 88% | 1010.7 hPa | 0.25 mm | 0.45 m/s, 203° | - | - |
| 1777971317 | 10.56° C | 87% | 1010.6 hPa | 0 mm | 0.89 m/s, 203° | - | - |
| 1777970716 | 10.56° C | 88% | 1010.6 hPa | 0 mm | 0.89 m/s, 203° | - | - |
| 1777970116 | 10.56° C | 89% | 1010.5 hPa | 0 mm | 1.34 m/s, 180° | - | - |
| 1777969516 | 10° C | 93% | 1010.6 hPa | 0 mm | 0.89 m/s, 315° | - | - |
| 1777968916 | 10° C | 94% | 1010.6 hPa | 0 mm | 0.45 m/s, 203° | - | - |
| 1777968315 | 10° C | 96% | 1010.5 hPa | 0 mm | 0.89 m/s, 23° | - | - |
| 1777967715 | 9.44° C | 96% | 1010.3 hPa | 0 mm | 1.79 m/s, 338° | - | - |
* Rain latest hour (hover to see other rain measurements)
** Current wind speed in m/s (hover to see current wind gust speed)